This is the latest recevied weather packets stored in our database for station/object WA0LM. If no packets are shown the sender has not sent any weather packets the latest 10 day(s).
| Time | Temp. | Humidity | Pressure | Rain* | Wind** | Luminosity | Snow |
|---|---|---|---|---|---|---|---|
| 1777883350 | 15° C | 45% | 992.6 hPa | 0 mm | - | 0 W/m² | - |
| 1777883047 | 15° C | 46% | 992.6 hPa | 0 mm | - | 0 W/m² | - |
| 1777882743 | 15° C | 44% | 992.7 hPa | 0 mm | - | 0 W/m² | - |
| 1777882440 | 15° C | 43% | 992.6 hPa | 0 mm | - | 0 W/m² | - |
| 1777882136 | 15° C | 43% | 992.9 hPa | 0 mm | - | 0 W/m² | - |
| 1777881833 | 15° C | 45% | 993 hPa | 0 mm | - | 0 W/m² | - |
| 1777881530 | 15° C | 41% | 993.2 hPa | 0 mm | - | 0 W/m² | - |
| 1777881227 | 15° C | 41% | 993.2 hPa | 0 mm | - | 0 W/m² | - |
| 1777880924 | 15° C | 43% | 993.4 hPa | 0 mm | - | 0 W/m² | - |
| 1777880622 | 15° C | 41% | 993.4 hPa | 0 mm | - | 0 W/m² | - |
| 1777880320 | 15° C | 43% | 993.5 hPa | 0 mm | - | 0 W/m² | - |
| 1777880018 | 15° C | 43% | 993.5 hPa | 0 mm | - | 0 W/m² | - |
| 1777879717 | 15° C | 43% | 993.7 hPa | 0 mm | - | 0 W/m² | - |
| 1777879413 | 15° C | 42% | 994 hPa | 0 mm | - | 0 W/m² | - |
| 1777879111 | 15° C | 43% | 994.3 hPa | 0 mm | - | 0 W/m² | - |
| 1777878807 | 15° C | 44% | 994 hPa | 0 mm | - | 0 W/m² | - |
| 1777878505 | 15° C | 42% | 994.4 hPa | 0 mm | - | 0 W/m² | - |
| 1777878201 | 15° C | 44% | 994.4 hPa | 0 mm | - | 0 W/m² | - |
| 1777877897 | 15° C | 42% | 994.6 hPa | 0 mm | - | 0 W/m² | - |
| 1777877594 | 15° C | 43% | 994.7 hPa | 0 mm | - | 0 W/m² | - |
| 1777877290 | 15° C | 43% | 995 hPa | 0 mm | - | 0 W/m² | - |
| 1777876988 | 15° C | 43% | 995.2 hPa | 0 mm | - | 0 W/m² | - |
| 1777876686 | 15° C | 43% | 995.2 hPa | 0 mm | - | 0 W/m² | - |
| 1777876383 | 15° C | 43% | 995.4 hPa | 0 mm | - | 0 W/m² | - |
| 1777876079 | 15° C | 45% | 995.4 hPa | 0 mm | - | 0 W/m² | - |
* Rain latest hour (hover to see other rain measurements)
** Current wind speed in m/s (hover to see current wind gust speed)